2025-013B (62730 NORAD) Tracking and Keplerian Element Data

This shows tracking and keplerian element data for the satellite.

Feedback or suggestion? Click here.




ElementValue
Catalog62730
Name2025-013B
Epoch Orbit216
Epoch Day34.72281943
Epoch Year2025
RAAN201.6996
Inclination97.6115
Eccentricity0.0013231
Argument of Perigee257.8925
Mean Anonmoly102.082
Mean Motion15.07771052
Decay Rate9.018E-05
L11 62730U 25013B 25034.72281943 .00009018 00000+0 59252-3 0 9992
L22 62730 97.6115 201.6996 0013231 257.8925 102.0820 15.07771052 2167



Live tracking and technical data element details for 2025-013B (NORAD 62730). 2025-013B can be tracked NOW for your location showing map with azimuth and elevation plus other details from your city location.







IsCatalogInMostPopularTable: catalog: 62730, numindb: 190
Update: records affected: 1



GetName: 62730 2025-013B

Hit Count: updated at: Sat, 06 Dec 2025 12:13:30 GMT